Location: Neuvy Saint Sepulchre
(46.5953°N, 1.8122°E)
Time: 23:44:53
(UTC+02:00)

ISS - Pass Details

Date: 29 March 2019
Orbit: 408 x 410 km, 51.6° (Epoch: 26 April)

Event Time Altitude Azimuth Distance (km) Brightness Sun altitude
Rises 21:38:28 0° 292° (WNW) 2,338 1.4 -23.5°
Reaches altitude 10° 21:40:39 10° 301° (WNW) 1,476 0.1 -23.8°
Enters shadow 21:43:00 32° 337° (NNW) 723 -2.1 -24.1°
